Location: Esterri de Aneo
(42.6284°N, 1.1223°E)
Time: 17:42:16
(UTC+00:00)

ISS - Visible Passes

Search period start: 14 February 2026 00:00
Search period end: 24 February 2026 00:00
Orbit: 413 x 428 km, 51.6° (Epoch: 13 February)

Date Brightness Start Highest point End Pass type
(mag) Time Alt. Az. Time Alt. Az. Time Alt. Az.
14 Feb -2.7 05:20:59 21° SSW 05:22:48 42° SE 05:26:00 10° ENE visible
15 Feb -1.6 04:36:21 24° ESE 04:36:21 24° ESE 04:38:41 10° ENE visible
15 Feb -3.3 06:09:23 10° W 06:12:33 44° NNW 06:15:46 10° NE visible
16 Feb -3.8 05:24:33 44° W 05:25:24 67° NNW 05:28:44 10° NE visible
17 Feb -2.2 04:39:35 35° ENE 04:39:35 35° ENE 04:41:40 10° ENE visible
17 Feb -2.3 06:12:36 10° WNW 06:15:25 24° NNW 06:18:15 10° NE visible
18 Feb -2.7 05:27:30 28° NW 05:28:10 31° NNW 05:31:13 10° NE visible
19 Feb -2.0 04:42:19 27° NNE 04:42:19 27° NNE 04:44:10 10° NE visible
19 Feb -1.8 06:15:58 10° NW 06:18:24 18° N 06:20:48 10° NE visible
20 Feb -0.2 03:57:03 10° NE 03:57:03 10° NE 03:57:05 10° NE visible
20 Feb -2.0 05:30:02 18° NW 05:31:03 20° NNW 05:33:38 10° NE visible
21 Feb -1.7 04:44:43 21° NNE 04:44:43 21° NNE 04:46:31 10° NE visible
22 Feb -0.3 03:59:22 10° NE 03:59:22 10° NE 03:59:25 10° NE visible
22 Feb -1.6 05:32:20 13° NW 05:33:58 17° N 05:36:17 10° NE visible
23 Feb -1.6 04:46:57 18° N 04:46:57 18° N 04:48:58 10° NE visible
